"TOA5","AWS1","CR1000","7964","CR1000.Std.14","CPU:AWS1_114.CR1","64363","TBL110"
"TIMESTAMP","RECORD","Wind_spd_WVc(1)","Wind_spd_WVc(2)","Air_Temp_Avg","Humidity_Avg","SW_upper_Wm2_Avg","Rain_Tot","Press_Avg","Issui_Tot","Depth_cm","SR50A_Raw","Quality","Ground_Temp_Avg(1)","Ground_Temp_Avg(2)","SW_lower_Wm2_Avg","Albedo_Avg","SWC_per(1)","SWC_per(2)","Period(1)","Period(2)"
"TS","RN","","","","","","","","","","","","","","","","","","",""
"","","WVc","WVc","Avg","Avg","Avg","Tot","Avg","Tot","Smp","Smp","Smp","Avg","Avg","Avg","Avg","Smp","Smp","Smp","Smp"
"2015-12-26 00:00:00",215197,0.747,186.8,-4.232,99.1,0,0,858.9754,0,-5.474,3.26,204,2.553,3.479,0.4626289,0,52.38,60.8,33.88,35.86
"2015-12-26 00:10:00",215198,0.754,169.3,-4.218,98.4,0,0,858.8947,0,-4.88,3.254,195,2.566,3.459,0.6863688,0,52.44,60.8,33.89,35.86
"2015-12-26 00:20:00",215199,0.44,302.9,-4.164,96.8,0,0,858.7504,0,-6.599,3.27,192,2.538,3.42,0.6977499,0,52.38,60.8,33.88,35.86
"2015-12-26 00:30:00",215200,0.468,341.1,-4.199,97.2,0,0,858.864,0,-5.248,3.259,197,2.524,3.403,0.8190995,0,52.38,60.8,33.88,35.86
"2015-12-26 00:40:00",215201,0.854,56.45,-4.402,100,0,0,858.8265,0,-5.696,3.263,198,2.497,3.416,0.3564602,0,52.38,60.8,33.88,35.86
"2015-12-26 00:50:00",215202,0.708,0.049,-4.233,100,0,0,858.8223,0,-5.477,3.26,187,2.504,3.412,0.580196,0,52.38,60.8,33.88,35.86
"2015-12-26 01:00:00",215203,0.655,98,-4.338,100,0,0,858.738,0,-5.127,3.257,198,2.527,3.405,0.4133422,0,52.38,60.8,33.88,35.86
"2015-12-26 01:10:00",215204,0.32,349.2,-4.382,100,0,0,858.9467,0,-5.024,3.257,197,2.507,3.403,0.6598307,0,52.38,60.8,33.88,35.86
"2015-12-26 01:20:00",215205,0.18,185.2,-4.361,100,0,0,858.991,0,-4.881,3.254,198,2.466,3.403,0.6787913,0,52.32,60.74,33.87,35.85
"2015-12-26 01:30:00",215206,0.979,186.7,-4.182,100,0,0,858.9867,0,-4.735,3.252,194,2.458,3.405,0.6825835,0,52.32,60.74,33.87,35.85
"2015-12-26 01:40:00",215207,0.656,185.3,-4.103,95.5,0,0,858.9382,0,-4.592,3.249,194,2.453,3.404,0.4171343,0,52.32,60.74,33.87,35.85
"2015-12-26 01:50:00",215208,0.411,346.3,-4.036,93.3,0,0,858.991,0,-5.796,3.264,202,2.452,3.403,0.4550556,0,52.38,60.74,33.88,35.85
"2015-12-26 02:00:00",215209,0.452,137.2,-4.144,99.5,0,0,858.991,0,-4.489,3.249,193,2.452,3.403,0.5612352,0,52.32,60.74,33.87,35.85
"2015-12-26 02:10:00",215210,0.603,137.6,-3.915,95.9,0,0,858.9593,0,-4.298,3.245,198,2.452,3.404,0.4436792,0,52.32,60.74,33.87,35.85
"2015-12-26 02:20:00",215211,0.561,222.4,-3.404,81.3,0,0,858.991,0,-4.656,3.246,212,2.452,3.408,0.9214877,0,52.38,60.74,33.88,35.85
"2015-12-26 02:30:00",215212,0.547,343,-3.696,90.4,0,0,858.991,0,-4.735,3.252,192,2.452,3.403,0.6712071,0,52.32,60.74,33.87,35.85
"2015-12-26 02:40:00",215213,0.528,117.6,-4.415,97.3,0,0,858.991,0,-4.524,3.253,197,2.453,3.404,0.01516852,0,52.32,60.74,33.87,35.85
"2015-12-26 02:50:00",215214,0.255,142.7,-4.606,100,0,0,858.
"2015-12-26 02:50:00",215214,0.255,142.7,-4.606,100,0,0,858.991,0,-4.553,3.252,196,2.461,3.405,0.04929769,0,52.38,60.74,33.88,35.85
"2015-12-26 03:00:00",215215,0.243,167.3,-4.38,100,0,0,858.991,0,-4.458,3.25,196,2.481,3.408,0.3716288,0,52.32,60.74,33.87,35.85
"2015-12-26 03:10:00",215216,0.281,133.8,-4.272,99.9,0,0,859.0773,0,-4.381,3.25,195,2.491,3.425,0.4702242,0,52.32,60.68,33.87,35.83
"2015-12-26 03:20:00",215217,0.103,123.9,-4.236,98.9,0,0,859.1848,0,-4.536,3.25,192,2.493,3.418,0.5612352,0,52.32,60.68,33.87,35.83
"2015-12-26 03:30:00",215218,0.127,113.3,-4.038,95.4,0,0,859.0373,0,-4.592,3.249,192,2.483,3.418,0.6825835,0,52.32,60.68,33.87,35.83
"2015-12-26 03:40:00",215219,0.009,116.9,-3.77,91.7,0,0,858.991,0,-4.644,3.249,186,2.468,3.423,0.841853,0,52.32,60.68,33.87,35.83
"2015-12-26 03:50:00",215220,0.266,150.8,-3.722,93.7,0,0,858.9551,0,-4.523,3.247,190,2.443,3.411,0.6939598,0,52.27,60.68,33.85,35.83
"2015-12-26 04:00:00",215221,0.598,109.4,-3.492,87.9,0,0,858.9636,0,-4.626,3.247,194,2.427,3.419,1.076965,0,52.27,60.74,33.85,35.85
"2015-12-26 04:10:00",215222,0.16,104.9,-3.358,86.5,0,0,858.9509,0,-4.681,3.246,190,2.449,3.404,1.137639,0,52.32,60.74,33.87,35.85
"2015-12-26 04:20:00",215223,0.137,132.3,-3.25,88.6,0,0,858.8097,0,-4.479,3.245,196,2.434,3.403,1.027667,0,52.27,60.68,33.85,35.83
"2015-12-26 04:30:00",215224,0.069,132.4,-3.25,86.8,0,0,858.7486,0,-4.63,3.246,195,2.419,3.403,1.023875,0,52.27,60.68,33.85,35.83
"2015-12-26 04:40:00",215225,0,0,-3.143,85.8,0,0,858
"2015-12-26 04:40:00",215225,0,0,-3.143,85.8,0,0,858.8666,0,-4.659,3.245,195,2.41,3.404,0.9214877,0,52.27,60.68,33.85,35.83
"2015-12-26 04:50:00",215226,0.008,0.097,-3.02,81,0,0,858.9446,0,-4.612,3.244,189,2.409,3.407,1.137639,0,52.27,60.68,33.85,35.83
"2015-12-26 05:00:00",215227,0.005,54.33,-3.04,83.9,0,0,858.991,0,-4.759,3.246,191,2.409,3.407,1.122471,0,52.27,60.68,33.85,35.83
"2015-12-26 05:10:00",215228,0.084,90.6,-3.1,86.7,0,0,858.9887,0,-4.832,3.247,190,2.409,3.407,0.8191001,0,52.27,60.68,33.85,35.83
"2015-12-26 05:20:00",215229,0.079,105.6,-3.16,88.3,0,0,858.9431,0,-4.854,3.248,185,2.402,3.407,0.8228922,0,52.27,60.68,33.85,35.83
"2015-12-26 05:30:00",215230,0.322,163.7,-3.19,86.6,0,0,858.87,0,-4.736,3.245,190,2.391,3.415,0.8380607,0,52.27,60.68,33.85,35.83
"2015-12-26 05:40:00",215231,0.564,151.4,-3.051,81.9,0,0,858.9951,0,-4.833,3.247,186,2.381,3.418,1.145223,0,52.27,60.68,33.85,35.83
"2015-12-26 05:50:00",215232,0.603,165.9,-2.888,76.84,0,0,859.0563,0,-4.616,3.243,194,2.374,3.433,1.395504,0,52.21,60.68,33.84,35.83
"2015-12-26 06:00:00",215233,0.642,149.9,-2.758,76.78,0,0,859.1464,0,-4.618,3.242,189,2.357,3.415,1.190729,0,52.27,60.62,33.85,35.82
"2015-12-26 06:10:00",215234,0.296,117.8,-2.668,76.39,0,0,859.259,0,-4.519,3.241,186,2.347,3.409,1.133847,0,52.21,60.62,33.84,35.82
"2015-12-26 06:20:00",215235,0.507,81.6,-2.692,77.47,0,0,859.4121,0,-4.641,3.243,194,2.352,3.413,1.080757,0,52.21,60.62,33.84,35.82
"2015-12-26 06:30:00",215236,0.218,51.8,-2.776,80.6,0,0,859.5326,0,-4.714,3.244,194,2.353,3.425,0.758426,0,52.27,60.68,33.85,35.83
"2015-12-26 06:40:00",215237,0.604,70.09,-3,84.6,0,0,859.6886,0,-4.56,3.244,190,2.36,3.417,0.5953645,0,52.27,60.68,33.85,35.83
"2015-12-26 06:50:00",215238,0.376,47.65,-3.107,87.9,0,0,859.756,0,-4.361,3.242,191,2.363,3.412,0.6484542,0,52.27,60.62,33.85,35.82
"2015-12-26 07:00:00",215239,0.554,49.86,-3.171,87.4,0,0,859.8509,0,-4.21,3.241,193,2.365,3.421,0.9252798,0,52.27,60.62,33.85,35.82
"2015-12-26 07:10:00",215240,0.374,56.13,-3.257,89.4,0.6174761,0,859.9647,0,-3.982,3.24,197,2.365,3.417,1.501684,2.3,52.27,60.62,33.85,35.82
"2015-12-26 07:20:00",215241,0.323,57.09,-3.477,91.1,2.729481,0,859.9445,0,-3.26,3.233,219,2.364,3.417,2.597609,0.967,52.21,60.62,33.84,35.82
"2015-12-26 07:30:00",215242,0.37,71.68,-3.533,93.1,4.058824,0,859.9222,0,-3.11,3.232,226,2.357,3.416,3.321906,0.833,52.21,60.62,33.84,35.82
"2015-12-26 07:40:00",215243,0.318,79.71,-3.63,94.4,7.48444,0,859.9608,0,-3.206,3.234,216,2.334,3.37,5.673027,0.763,52.27,60.62,33.85,35.82
"2015-12-26 07:50:00",215244,0.237,124.2,-3.665,93.7,11.05939,0,859.9561,0,-3.329,3.235,201,2.324,3.38,8.342595,0.764,52.21,60.62,33.84,35.82
"2015-12-26 08:00:00",215245,0.378,108.6,-3.662,92.8,18.37466,0,859.9871,0,-3.231,3.234,211,2.323,3.37,12.87037,0.704,52.21,60.62,33.84,35.82
"2015-12-26 08:10:00",215246,0.258,95.2,-3.552,91.9,24.5613,0,859.9931,0,-3.307,3.234,211,2.32,3.373,16.4957,0.677,52.21,60.62,33.84,35.82
"2015-12-26 08:20:00",215247,0.319,107.2,-3.47,90.6,20.70681,0,860.0091,0,-3.182,3.233,211,2.319,3.367,13.51497,0.655,52.21,60.62,33.84,35.82
"2015-12-26 08:30:00",215248,0.174,101.2,-3.517,90.4,19.23191,0,860.2008,0,-3.131,3.232,217,2.317,3.366,12.96129,0.675,52.21,60.62,33.84,35.82
"2015-12-26 08:40:00",215249,0.141,79.08,-3.399,90.8,26.53436,0,860.3754,0,-3.178,3.232,216,2.309,3.347,17.9586,0.681,52.21,60.56,33.84,35.81
"2015-12-26 08:50:00",215250,0.193,121.6,-3.325,90.4,44.26617,0,860.4118,0,-3.177,3.231,204,2.302,3.344,28.81423,0.655,52.16,60.56,33.83,35.81
"2015-12-26 09:00:00",215251,0.204,102.9,-3.085,89.8,53.3229,0,860.4714,0,-3.331,3.232,204,2.29,3.34,36.73905,0.69,52.21,60.56,33.84,35.81
"2015-12-26 09:10:00",215252,0.235,95.1,-3.093,88.9,68.20733,0,860.6096,0,-3.179,3.229,213,2.281,3.349,44.3564,0.654,52.21,60.56,33.84,35.81
"2015-12-26 09:20:00",215253,0.268,103.8,-2.941,86.5,72.28223,0,860.6782,0,-3.074,3.228,212,2.255,3.363,46.16302,0.638,52.21,60.56,33.84,35.81
"2015-12-26 09:30:00",215254,0.05,45.51,-2.842,84.8,59.01643,0,860.7009,0,-3.093,3.228,209,2.25,3.361,36.79666,0.624,52.16,60.56,33.83,35.81
"2015-12-26 09:40:00",215255,0.432,122.4,-2.913,84.5,60.85741,0,860.7602,0,-3.332,3.231,199,2.227,3.342,38.71307,0.635,52.21,60.56,33.84,35.81
"2015-12-26 09:50:00",215256,0.277,119.2,-3.146,84.9,43.33722,0,860.9041,0,-3.42,3.233,204,2.222,3.285,28.76674,0.665,52.16,60.56,33.83,35.81
"2015-12-26 10:00:00",215257,0.346,100.6,-3.125,85.5,45.36822,0,860.8489,0,-5.058,3.249,180,2.2,3.31,31.53299,0.698,52.21,60.5,33.84,35.79
"2015-12-26 10:10:00",215258,0.111,99.1,-2.949,87.4,55.32629,0,860.9184,0,-4.069,3.237,212,2.197,3.307,39.57285,0.718,52.21,60.56,33.84,35.81
"2015-12-26 10:20:00",215259,0.382,41.41,-2.831,86.6,58.47525,0,
"2015-12-26 10:20:00",215259,0.382,41.41,-2.831,86.6,58.47525,0,860.9227,0,-2.497,3.223,270,2.192,3.31,42.95409,0.735,52.21,60.5,33.84,35.79
"2015-12-26 10:30:00",215260,0.324,26.92,-3.102,86.8,49.5071,0,860.9248,0,-2.594,3.225,259,2.197,3.304,36.1305,0.73,52.16,60.5,33.83,35.79
"2015-12-26 10:40:00",215261,0.333,18.67,-3.146,87.1,61.99393,0,860.9248,0,-4.213,3.24,196,2.215,3.275,46.69934,0.753,52.16,60.5,33.83,35.79
"2015-12-26 10:50:00",215262,0.486,26.9,-3.036,87.5,92.12987,0,860.8953,0,-3.841,3.236,203,2.201,3.287,68.5649,0.747,52.16,60.5,33.83,35.79
"2015-12-26 11:00:00",215263,0.205,23.91,-2.902,86.8,88.06457,0,860.6951,0,-3.796,3.234,195,2.189,3.296,69.27379,0.792,52.21,60.5,33.84,35.79
"2015-12-26 11:10:00",215264,0.345,28.46,-2.671,86.2,87.09738,0,860.6846,0,-4.242,3.239,195,2.179,3.303,65.07353,0.747,52.16,60.5,33.83,35.79
"2015-12-26 11:20:00",215265,0.42,44.99,-2.257,85.7,178.0478,0,860.6656,0,-3.984,3.231,194,2.177,3.297,129.6694,0.731,52.16,60.5,33.83,35.79
"2015-12-26 11:30:00",215266,0.197,320,-1.911,82.1,141.6959,0,860.5076,0,-4.238,3.232,196,2.195,3.272,102.2844,0.729,52.16,60.5,33.83,35.79
"2015-12-26 11:40:00",215267,0.442,314,-1.747,80.9,188.4548,0,860.4381,0,-4.531,3.237,203,2.223,3.32,131.8757,0.724,52.1,60.44,33.81,35.78
"2015-12-26 11:50:00",215268,0.597,293.3,-2.034,81.8,110.3843,0,860.4233,0,-4.581,3.237,194,2.231,3.32,86.26805,0.782,52.16,60.44,33.83,35.78
"2015-12-26 12:00:00",215269,0.511,306.5,-1.788,80.7,127.4932,0,860.4191,0,-4.481,3.236,210,2.228,3.338,94.96688,0.748,52.1,60.44,33.81,35.78
"2015-12-26 12:10:00",215270,0.845,325.3,-2.071,79.76,183.4837,0,860.4191,0,-4.283,3.234,224,2.232,3.314,120.0359,0.677,52.16,60.44,33.83,35.78
"2015-12-26 12:20:00",215271,0.836,341,-1.953,78.25,182.6352,0,860.3391,0,-4.432,3.236,198,2.242,3.351,116.5716,0.645,52.16,60.44,33.83,35.78
"2015-12-26 12:30:00",215272,0.55,46.81,-1.791,77.91,181.5899,0,860.1468,0,-4.392,3.232,194,2.254,3.356,111.1586,0.659,52.16,60.44,33.83,35.78
"2015-12-26 12:40:00",215273,0.364,1.723,-1.5,76.67,108.2158,0,860.1045,0,-4.285,3.231,195,2.27,3.352,75.61047,0.707,52.16,60.44,33.83,35.78
"2015-12-26 12:50:00",215274,0.422,306.7,-1.51,78.87,94.80318,0,860.0364,0.5,-5.327,3.243,190,2.282,3.346,66.01456,0.702,52.16,60.44,33.83,35.78
"2015-12-26 13:00:00",215275,0.368,296,-1.714,81.8,61.83562,0,860.08,0,-3.473,3.225,201,2.244,3.331,43.20452,0.701,52.16,60.44,33.83,35.78
"2015-12-26 13:10:00",215276,0.611,328.4,-1.786,83.1,131.7813,0,859.9266,0,-3.783,3.229,199,2.214,3.304,94.94323,0.724,52.16,60.44,33.83,35.78
"2015-12-26 13:20:00",215277,0.647,9.45,-1.832,84.5,115.6612,0,859.8245,0,-3.205,3.224,189,2.208,3.275,79.00047,0.686,52.16,60.44,33.83,35.78
"2015-12-26 13:30:00",215278,0.302,343.3,-1.898,85,37.52359,0,859.8243,0,-3.654,3.228,192,2.185,3.236,26.15518,0.689,52.1,60.44,33.81,35.78
"2015-12-26 13:40:00",215279,0.243,343.8,-2.079,87.5,38.48684,0,859.8242,0,-3.628,3.229,202,2.179,3.216,27.17865,0.706,52.1,60.44,33.81,35.78
"2015-12-26 13:50:00",215280,0.393,44.68,-2.185,91,32.1821,0,859.9169,0,-4.477,3.238,177,2.174,3.215,27.50108,0.857,52.1,60.38,33.81,35.77
"2015-12-26 14:00:00",215281,0.164,9.28,-2.14,93.6,32.3569,0,860.1492,0,-4.886,3.242,190,2.142,3.181,30.17483,0.933,52.1,60.38,33.81,35.77
"2015-12-26 14:10:00",215282,0.378,110.8,-2.188,94.8,32.52377,0,860.1973,0,-2.851,3.221,211,2.187,3.219,32.29915,0.993,52.16,60.38,33.83,35.77
"2015-12-26 14:20:00",215283,0.22,91.1,-1.985,94.2,39.03522,0,860.353,0,-3.578,3.228,290,2.213,3.227,41.26125,1.057,52.1,60.38,33.81,35.77
"2015-12-26 14:30:00",215284,0.218,63.44,-1.932,94.2,38.37937,0,860.4039,0,-4.329,3.235,266,2.213,3.222,43.97236,1.143,52.1,60.38,33.81,35.77
"2015-12-26 14:40:00",215285,0.142,100.3,-1.627,93.7,75.1245,0,860.4327,0,-2.818,3.217,195,2.225,3.217,90.55425,1.205,52.1,60.38,33.81,35.77
"2015-12-26 14:50:00",215286,0.444,119.4,-1.579,91.4,54.35056,0,860.4086,0,-2.793,3.217,195,2.233,3.201,64.27713,1.177,52.1,60.38,33.81,35.77
"2015-12-26 15:00:00",215287,0.318,146.5,-1.548,88.2,39.72116,0,860.408,0,-2.893,3.218,198,2.235,3.21,49.0344,1.23,52.1,60.38,33.81,35.77
"2015-12-26 15:10:00",215288,0.189,154.8,-1.416,86,24.8007,0,860.4039,0,-2.696,3.215,198,2.234,3.225,30.40629,1.226,52.1,60.38,33.81,35.77
"2015-12-26 15:20:00",215289,0.042,85.4,-1.301,87,21.45882,0,860.588,0,-2.846,3.216,200,2.238,3.227,27.39637,1.279,52.1,60.38,33.81,35.77
"2015-12-26 15:30:00",215290,0.226,43.83,-1.408,87,18.71848,0,860.6617,0,-2.795,3.216,198,2.234,3.227,24.56083,1.312,52.1,60.33,33.81,35.75
"2015-12-26 15:40:00",215291,0.199,58.83,-1.486,88.3,16.57967,0,860.7928,0,-2.842,3.218,225,2.234,3.235,20.62594,1.243,52.1,60.33,33.81,35.75
"2015-12-26 15:50:00",215292,0.373,53.71,-1.71,90.1,13.1277,0,860.9583,0,-4.636,3.236,209,2.224,3.271,16.20962,1.231,52.1,60.33,33.81,35.75
"2015-12-26 16:00:00",215293,0.231,29.68,-1.799,92.6,5.370602,0,860.9537,0,-3.361,3.225,204,2.232,3.27,6.637754,1.211,52.05,60.33,33.8,35.75
"2015-12-26 16:10:00",215294,0.221,67.8,-1.969,93.4,6.294534,0,860.8471,0,-2.937,3.221,202,2.231,3.271,8.24886,1.308,52.05,60.38,33.8,35.77
"2015-12-26 16:20:00",215295,0.143,83.7,-1.956,94.1,3.558122,0,860.7962,0,-2.712,3.219,206,2.228,3.271,4.768872,1.343,52.05,60.33,33.8,35.75
"2015-12-26 16:30:00",215296,0.44,136.5,-2.151,94.6,1.391796,0,860.9026,0,-2.585,3.219,204,2.226,3.271,1.554243,1.075,52.1,60.33,33.81,35.75
"2015-12-26 16:40:00",215297,0.379,98.2,-2.125,96.6,0.2870088,0,860.9245,0,-3.085,3.223,182,2.218,3.271,0.5117629,1.8,52.1,60.33,33.81,35.75
"2015-12-26 16:50:00",215298,0.27,100.2,-2.209,97.8,0.2241027,0,860.9015,0,-1.637,3.21,199,2.251,3.26,0.2274502,0.916,52.05,60.33,33.8,35.75
"2015-12-26 17:00:00",215299,0.428,112,-2.261,98.6,0.02752139,0,860.9162,0,-1.538,3.209,201,2.225,3.255,0.09856175,0.112,52.05,60.33,33.8,35.75
"2015-12-26 17:10:00",215300,0.255,94,-2.285,99.2,0,0,861.0848,0,-1.787,3.211,204,2.21,3.251,0.07202589,0,52.05,60.38,33.8,35.77
"2015-12-26 17:20:00",215301,0.421,38.39,-2.306,99.9,0,0,861.1332,0.5,-4.326,3.237,227,2.223,3.234,0.1023526,0,52.05,60.33,33.8,35.75
"2015-12-26 17:30:00",215302,0.147,57.46,-2.267,100,0,0,861.1776,0,-2.533,3.219,193,2.205,3.245,0.163006,0,52.1,60.38,33.81,35.77
"2015-12-26 17:40:00",215303,0.189,56.77,-2.352,100,0,0,861.2977,0,-2.309,3.217,194,2.231,3.227,0.01516335,0,52.05,60.33,33.8,35.75
"2015-12-26 17:50:00",215304,0.055,86.1,-2.317,100,0,0,861.2449,0,-2.733,3.221,200,2.237,3.227,0.1061434,0,52.05,60.33,33.8,35.75
"2015-12-26 18:00:00",215305,0.07,44.01,-2.261,100,0,0,861.2913,0,-2.858,3.222,200,2.216,3.229,0.2047052,0,52.05,60.33,33.8,35.75
"2015-12-26 18:10:00",215306,0.077,61.73,-2.243,100,0,0,861.3609,0,-3.48,3.228,202,2.193,3.249,0.2198685,0,52.05,60.33,33.8,35.75
"2015-12-26 18:20:00",215307,0.116,58.15,-2.278,100,0,0,861.3945,0,-3.083,3.224,185,2.212,3.237,0.185751,0,52.05,60.33,33.8,35.75
"2015-12-26 18:30:00",215308,0.068,56.19,-2.251,100,0,0,861.4219,0,-2.983,3.223,1
"2015-12-26 18:30:00",215308,0.068,56.19,-2.251,100,0,0,861.4219,0,-2.983,3.223,182,2.243,3.231,0.2274502,0,52.05,60.33,33.8,35.75
"2015-12-26 18:40:00",215309,0.115,84.7,-2.24,100,0,0,861.5062,0,-1.214,3.206,217,2.249,3.235,0.1895418,0,51.99,60.33,33.79,35.75
"2015-12-26 18:50:00",215310,0.273,280.2,-2.293,100,0,0,861.8581,0,-0.467,3.198,228,2.253,3.242,0.1895418,0,52.05,60.33,33.8,35.75
"2015-12-26 19:00:00",215311,0.259,86.2,-2.37,100,0,0,861.9255,0,0.38,3.19,308,2.246,3.244,0.01516335,0,51.99,60.33,33.79,35.75
"2015-12-26 19:10:00",215312,0.048,168.3,-2.309,100,0,0,861.9065,0,-1.14,3.205,217,2.245,3.244,0.163006,0,51.99,60.27,33.79,35.74
"2015-12-26 19:20:00",215313,0.106,79.03,-2.27,100,0,0,861.936,0,-2.832,3.222,193,2.256,3.254,0.163006,0,52.05,60.33,33.8,
"2015-12-26 19:20:00",215313,0.106,79.03,-2.27,100,0,0,861.936,0,-2.832,3.222,193,2.256,3.254,0.163006,0,52.05,60.33,33.8,35.75
"2015-12-26 19:30:00",215314,0.243,46.15,-2.324,100,0,0,861.9212,0.5,-1.014,3.204,200,2.272,3.246,0.1288884,0,51.99,60.27,33.79,35.74
"2015-12-26 19:40:00",215315,0.111,77.48,-2.329,100,0,0,861.9718,0,-0.94,3.203,198,2.273,3.253,0.05686254,0,51.99,60.27,33.79,35.74
"2015-12-26 19:50:00",215316,0.19,90.6,-2.302,100,0,0,862.0076,0,-0.442,3.198,221,2.276,3.254,0.05307171,0,51.99,60.27,33.79,35.74
"2015-12-26 20:00:00",215317,0.033,39.65,-2.279,100,0,0,862.1172,0,-0.468,3.198,222,2.275,3.258,0.01516335,0,51.99,60.27,33.79,35.74
"2015-12-26 20:10:00",215318,0.143,124,-2.3,100,0,0,862.1867,0,-0.989,3.204,206,2.273,3.236,0.1781693,0,51.99,60.27,33.79,35.74
"2015-12-26 20:20:00",215319,0.428,132.3,-2.412,100,0,0,862.3005,0,-0.542,3.199,23
"2015-12-26 20:20:00",215319,0.428,132.3,-2.412,100,0,0,862.3005,0,-0.542,3.199,235,2.267,3.221,0.08718923,0,51.99,60.27,33.79,35.74
"2015-12-26 20:30:00",215320,0.188,73.61,-2.368,100,0,0,862.2057,0,-0.193,3.196,267,2.271,3.231,0.208496,0,51.99,60.27,33.79,35.74
"2015-12-26 20:40:00",215321,0.232,98.2,-2.375,100,0,0,862.1888,0,-2.359,3.217,205,2.268,3.212,0.1895418,0,51.99,60.27,33.79,35.74
"2015-12-26 20:50:00",215322,0.146,65.22,-2.351,100,0,0,862.1888,0,-5.768,3.252,222,2.271,3.2,0.2047052,0,51.99,60.27,33.79,35.74
"2015-12-26 21:00:00",215323,0.187,79.95,-2.391,100,0,0,862.2352,0,-1.362,3.208,201,2.274,3.237,0.1402609,0,51.99,60.27,33.79,35.74
"2015-12-26 21:10:00",215324,0.113,108,-2.365,100,0,0,862.3616,0,-0.79,3.202,202,2.272,3.211,0.1440518,0,51.99,60.27,33.79,35.74
"2015-12-26 21:20:00",215325,0.009,115.6,-2.346,100,0,0,862.3215,0,-0.044,3.194,197,2.27,3.206,0.1175159,0,51.99,60.27,33.79,35.74
"2015-12-26 21:30:00",215326,0,0,-2.325,100,0,0,862.3406,0,0.255,3.191,202,2.257,3.186,0.06444422,0,51.94,60.27,33.77,35.74
"2015-12-26 21:40:00",215327,0.034,48.89,-2.336,100,0,0,862.1888,0.5,-0.044,3.194,199,2.253,3.193,0.08718923,0,51.99,60.27,33.79,35.74
"2015-12-26 21:50:00",215328,0,0,-2.308,100,0,0,862.1888,0,0.304,3.19,197,2.257,3.186,0.09856175,0,51.94,60.27,33.77,35.74
"2015-12-26 22:00:00",215329,0.157,71.17,-2.385,100,0,0,862.1973,0,0.555,3.189,199,2.259,3.19,0.01137251,0,51.94,60.21,33.77,35.73
"2015-12-26 22:10:00",215330,0.395,68.37,-2.443,100,0,0,862.191,0,0.405,3.19,216,2.262,3.204,0.05686254,0,51.99,60.21,33.79,35.73
"2015-12-26 22:20:00",215331,0.122,55.96,-2.404,100,0,0,862.1888,0,1.227,3.182,292,2.242,3.188,0.08339839,0,51.99,60.21,33.79,35.73
"2015-12-26 22:30:00",215332,0.238,54.24,-2.42,100,0,0,862.1888,0,0.505,3.189,200,2.252,3.187,0.08339839,0,51.99,60.21,33.79,35.73
"2015-12-26 22:40:00",215333,0.121,56.09,-2.406,100,0,0,862.1783,0,0.928,3.185,213,2.249,3.191,0.02274502,0,51.99,60.21,33.79,35.73
"2015-12-26 22:50:00",215334,0.204,345.7,-2.443,100,0,0,862.1383,0,0.655,3.188,198,2.253,3.196,0.007581673,0,51.94,60.21,33.77,35.73
"2015-12-26 23:00:00",215335,0.049,55.59,-2.417,100,0,0,862.2415,0,1.027,3.184,218,2.249,3.188,0.08339839,0,51.94,60.21,33.77,35.73
"2015-12-26 23:10:00",215336,0.278,79.13,-2.442,100,0,0,862.1193,0,1.078,3.184,219,2.247,3.187,0.007581673,0,51.94,60.21,33.77,35.73
"2015-12-26 23:20:00",215337,0.35,178,-2.473,100,0,0,861.8665,0,0.954,3.185,218,2.249,3.187,0.007581673,0,51.94,60.21,33.77,35.73
"2015-12-26 23:30:00",215338,0.229,136.8,-2.579,100,0,0,861.7064,0,0.706,3.188,206,2.244,3.186,0,0,51.99,60.21,33.79,35.73
"2015-12-26 23:40:00",215339,0.193,117.7,-2.549,100,0,0,
"2015-12-26 23:40:00",215339,0.193,117.7,-2.549,100,0,0,861.8117,0,0.754,3.187,219,2.239,3.184,0.03790836,0,51.94,60.15,33.77,35.71
"2015-12-26 23:50:00",215340,0.367,142.3,-2.497,100,0,0,861.8707,0,0.655,3.188,222,2.246,3.184,0.2274502,0,51.99,60.15,33.79,35.71
